Вернуться в каталог

SATELIOT_2

АктивенСвязьSSO
NORAD 60534·PAYLOAD·🇪🇸 Spain

Запущен Aug 16, 2024 с Vandenberg Space Force Base

Loading…

Ближайшие Пролёты (ближайшие 24 часа)

TLE

СвежийSource: Space-Track

Эпоха: Sep 14, 2026, 10:09 UTC

1 60534U 24149BU  26257.42355341  .00001893  00000-0  17115-3 0  9996
2 60534  97.6760 330.7342 0001992 105.4912 254.6530 14.96627123113315

Отслеживайте SATELIOT_2 в реальном времени с AllMySat

Download on the App Store